[[{"header":{"parameterUnit":"m.s-1","parameterCategory":1,"la1":30.2991,"la2":30.254,"lo1":-89.0895,"lo2":-89.0444,"dy":0.0017,"dx":0.0017,"nx":28,"ny":28,"refTime":"2024-05-07T21:00:00:Z","depth":0,"parameterNumber":2,"parameterNumberName":"U-component_of_WINDS"},"data":[0,0,0,0,0,0,0,0,0,0,0,0,0,0,0,0,0,0,0,0,0,0,0,0,0,0,0,0,0,0,0,0,0,0,0,0,0,0,0,0,0,0,0,0,0,0,0,0,0,0,0,0,0,0,0,0,0,0,-0.8649,-0.8648,0,-0.8553,-0.8552,-0.8551,-0.8495,-0.8494,-0.8494,-0.8494,-0.8396,-0.8394,-0.8392,0,0,0,0,0,0,0,0,0,0,0,0,0,-0.8783,-0.878,-0.8649,-0.8648,-0.8646,-0.8554,-0.8552,-0.8551,-0.8495,-0.8494,-0.8494,-0.8494,-0.8397,-0.8394,-0.8391,0,0,0,0,0,0,0,0,0,0,0,0,0,-0.871,-0.878,-0.8649,-0.8607,-0.8602,-0.8554,-0.8552,-0.8551,-0.8495,-0.8494,-0.8494,-0.8494,-0.8398,-0.8394,-0.8391,-0.8376,0,0,-0.838,-0.8378,0,0,0,0,0,0,0,0,-0.8714,-0.8705,-0.8614,-0.861,-0.8605,-0.8535,-0.8564,-0.8492,-0.8495,-0.8536,-0.8494,-0.8493,-0.8443,-0.8436,-0.8418,-0.8372,-0.8368,-0.838,-0.8378,-0.8376,-0.8375,0,0,0,0,0,0,0,-0.8719,-0.8709,-0.8611,-0.8613,-0.8607,-0.8593,-0.8583,-0.855,-0.8492,-0.8532,-0.8528,-0.8517,-0.844,-0.8422,-0.8416,-0.8366,-0.838,-0.8377,-0.8374,-0.8373,-0.8304,-0.8304,0,0,0,0,0,0,-0.8731,-0.8713,-0.8614,-0.8608,-0.8659,-0.8591,-0.8579,-0.8558,-0.8493,-0.8482,-0.8518,-0.8515,-0.8428,-0.842,-0.8412,-0.8391,-0.8376,-0.8373,-0.8371,-0.8303,-0.8304,-0.8304,0,0,0,0,0,0,-0.8734,-0.8722,-0.8618,-0.8659,-0.8645,-0.8589,-0.8566,-0.8556,-0.8538,-0.8482,-0.8471,-0.851,-0.8428,-0.8417,-0.8386,-0.8387,-0.8371,-0.8368,-0.8303,-0.8303,-0.8304,-0.8349,0,0,0,0,0,0,-0.8738,-0.8724,-0.8718,-0.866,-0.8643,-0.8593,-0.8566,-0.8555,-0.8532,-0.8528,-0.8472,-0.8462,-0.8427,-0.8392,-0.8382,-0.8382,-0.8365,-0.8303,-0.8303,-0.8304,-0.8347,-0.8351,-0.8354,0,0,0,0,0,-0.8743,-0.8734,-0.8717,-0.8706,-0.8634,-0.8593,-0.8584,-0.8543,-0.8533,-0.8526,-0.849,-0.8464,-0.8389,-0.8389,-0.8378,-0.8376,-0.8302,-0.8303,-0.8304,-0.8345,-0.835,-0.8354,0,0,0,0,0,0,-0.8793,-0.8725,-0.8707,-0.8679,-0.8642,-0.8584,-0.8574,-0.8549,-0.8515,-0.8512,-0.8464,-0.8452,-0.8425,-0.8398,-0.8399,-0.8359,-0.8343,-0.8341,-0.8378,-0.8382,-0.8385,-0.8392,-0.8362,0,0,0,0,0,-0.8801,-0.8773,-0.8716,-0.8697,-0.8679,-0.863,-0.8611,-0.8583,-0.8543,-0.8528,-0.8489,-0.8452,-0.8419,-0.8399,-0.8366,-0.8343,-0.833,-0.8337,-0.834,-0.8343,-0.8342,-0.8328,-0.833,-0.8306,-0.8306,-0.8306,0,0,-0.8817,-0.8776,-0.8762,-0.8706,-0.8674,-0.8647,-0.8617,-0.859,-0.8569,-0.8523,-0.8491,-0.8462,-0.8417,-0.839,-0.8376,-0.8366,-0.8346,-0.8344,-0.8347,-0.8344,-0.8329,-0.8331,-0.8334,-0.8307,-0.8306,-0.8306,0,0,-0.8831,-0.8798,-0.8779,-0.8748,-0.8701,-0.8668,-0.8664,-0.8609,-0.8588,-0.8555,-0.8521,-0.8496,-0.8441,-0.8411,-0.8388,-0.8393,-0.8367,-0.8383,-0.8401,-0.8388,-0.839,-0.8391,-0.8393,-0.8394,-0.8383,-0.8383,-0.8383,0,-0.8857,-0.8814,-0.8772,-0.8746,-0.8723,-0.868,-0.866,-0.8633,-0.8577,-0.8562,-0.8552,-0.8484,-0.845,-0.8415,-0.8417,-0.84,-0.8393,-0.8389,-0.8393,-0.8394,-0.8395,-0.8396,-0.8397,-0.8385,-0.8385,-0.8385,-0.8385,0,-0.8848,-0.8819,-0.8809,-0.8757,-0.8732,-0.871,-0.8664,-0.8644,-0.8619,-0.8588,-0.8556,-0.8515,-0.8473,-0.8463,-0.8438,-0.8425,-0.842,-0.8402,-0.8385,-0.84,-0.84,-0.84,-0.8388,-0.8388,-0.8387,-0.8386,0,0,-0.8891,-0.8816,-0.8813,-0.8789,-0.8734,-0.8711,-0.8687,-0.8646,-0.863,-0.8594,-0.8573,-0.8528,-0.8512,-0.8486,-0.8458,-0.8446,-0.8453,-0.843,-0.8428,-0.8435,-0.8436,-0.8449,-0.845,-0.8436,-0.8436,-0.8436,-0.844,0,-0.8897,-0.8851,-0.8813,-0.8781,-0.8754,-0.8714,-0.8693,-0.8658,-0.8628,-0.8601,-0.8569,-0.8538,-0.8518,-0.8503,-0.849,-0.8455,-0.8452,-0.8454,-0.8416,-0.8415,-0.8428,-0.845,-0.8464,-0.847,-0.8439,-0.8439,-0.8439,0,-0.8898,-0.8863,-0.8829,-0.8778,-0.8765,-0.8747,-0.8707,-0.8682,-0.8641,-0.862,-0.8592,-0.8563,-0.8536,-0.8522,-0.8484,-0.8486,-0.8468,-0.8449,-0.8448,-0.8443,-0.8428,-0.8445,-0.847,-0.8471,-0.8439,-0.8439,-0.8439,0,-0.8932,-0.8877,-0.885,-0.883,-0.877,-0.8758,-0.8732,-0.8691,-0.8669,-0.8635,-0.862,-0.8583,-0.8563,-0.8535,-0.8496,-0.849,-0.8463,-0.8445,-0.8445,-0.8446,-0.844,-0.8441,-0.8463,-0.843,-0.843,-0.843,-0.843,0,-0.8943,-0.8924,-0.8864,-0.8847,-0.8825,-0.8781,-0.876,-0.8731,-0.8695,-0.8672,-0.8636,-0.8615,-0.8565,-0.8539,-0.8508,-0.8482,-0.8473,-0.8456,-0.8448,-0.8458,-0.8461,-0.8446,-0.8444,-0.843,-0.843,-0.843,-0.843,0,-0.8978,-0.8937,-0.8904,-0.885,-0.8836,-0.8821,-0.8775,-0.8757,-0.8726,-0.8697,-0.8688,-0.8639,-0.8606,-0.8565,-0.8519,-0.8499,-0.8475,-0.8463,-0.8489,-0.8484,-0.8486,-0.8487,-0.8499,-0.8498,-0.8466,-0.8467,-0.8467,0,-0.8987,-0.8971,-0.8915,-0.8897,-0.8872,-0.8844,-0.8821,-0.8778,-0.8757,-0.871,-0.8698,-0.8662,-0.8631,-0.858,-0.8541,-0.8505,-0.8492,-0.8499,-0.8487,-0.8498,-0.8492,-0.8493,-0.8492,-0.8502,-0.8503,-0.8503,-0.8503,0,-0.9008,-0.8989,-0.8958,-0.892,-0.8895,-0.8863,-0.883,-0.8818,-0.8768,-0.8746,-0.8712,-0.8688,-0.8641,-0.8606,-0.8565,-0.8539,-0.8513,-0.8508,-0.8506,-0.8516,-0.8532,-0.8523,-0.8497,-0.8507,-0.8507,-0.8507,-0.8506,-0.8506,-0.903,-0.9014,-0.8972,-0.8939,-0.891,-0.888,-0.8861,-0.8827,-0.8798,-0.8756,-0.8733,-0.87,-0.866,-0.8603,-0.8578,-0.8552,-0.8542,-0.8539,-0.8538,-0.8538,-0.8541,-0.8537,-0.8544,-0.8544,-0.8544,-0.8544,-0.8543,0,-0.9049,-0.902,-0.899,-0.8945,-0.892,-0.8897,-0.886,-0.884,-0.8811,-0.8776,-0.8746,-0.8707,-0.8674,-0.8632,-0.8595,-0.8582,-0.857,-0.8574,-0.8574,-0.8569,-0.8552,-0.8557,-0.8585,-0.8585,-0.8585,-0.8585,-0.8585,-0.8585,-0.9056,-0.9028,-0.9004,-0.8961,-0.8933,-0.8899,-0.888,-0.8852,-0.8824,-0.8782,-0.8754,-0.8727,-0.869,-0.865,-0.8618,-0.8607,-0.8595,-0.8604,-0.8589,-0.8574,-0.857,-0.8566,-0.8571,-0.8601,-0.8601,-0.8607,-0.8607,-0.8608]},{"header":{"parameterUnit":"m.s-1","parameterCategory":1,"la1":30.2991,"la2":30.254,"lo1":-89.0895,"lo2":-89.0444,"dy":0.0017,"dx":0.0017,"nx":28,"ny":28,"refTime":"2024-05-07T21:00:00:Z","depth":0,"parameterNumber":3,"parameterNumberName":"V-component_of_WINDS"},"data":[0,0,0,0,0,0,0,0,0,0,0,0,0,0,0,0,0,0,0,0,0,0,0,0,0,0,0,0,0,0,0,0,0,0,0,0,0,0,0,0,0,0,0,0,0,0,0,0,0,0,0,0,0,0,0,0,0,0,6.3811,6.3811,0,6.3816,6.3816,6.3816,6.3808,6.3808,6.3808,6.3807,6.3808,6.3808,6.3808,0,0,0,0,0,0,0,0,0,0,0,0,0,6.3794,6.3794,6.3811,6.3811,6.3811,6.3816,6.3816,6.3816,6.3808,6.3808,6.3808,6.3807,6.3808,6.3808,6.3808,0,0,0,0,0,0,0,0,0,0,0,0,0,6.38,6.3794,6.3811,6.3808,6.3808,6.3816,6.3816,6.3816,6.3808,6.3808,6.3808,6.3807,6.3807,6.3808,6.3808,6.3817,0,0,6.3809,6.3809,0,0,0,0,0,0,0,0,6.3799,6.38,6.3808,6.3808,6.3808,6.3811,6.3809,6.3816,6.3808,6.3808,6.3807,6.3807,6.3809,6.3809,6.381,6.3817,6.3817,6.3809,6.3809,6.381,6.381,0,0,0,0,0,0,0,6.3799,6.38,6.3813,6.3809,6.3808,6.3806,6.3806,6.3811,6.381,6.3808,6.3807,6.3808,6.3809,6.381,6.381,6.3817,6.3809,6.3809,6.381,6.381,6.3834,6.3835,0,0,0,0,0,0,6.3799,6.38,6.3813,6.3813,6.3803,6.3806,6.3807,6.381,6.381,6.381,6.3809,6.3808,6.381,6.381,6.381,6.3822,6.381,6.381,6.381,6.3834,6.3834,6.3835,0,0,0,0,0,0,6.3799,6.3801,6.3812,6.3806,6.3808,6.3807,6.3811,6.3811,6.3812,6.3811,6.381,6.3811,6.3809,6.381,6.3816,6.3822,6.381,6.381,6.3833,6.3834,6.3835,6.3846,0,0,0,0,0,0,6.3799,6.3801,6.3804,6.3806,6.3808,6.3819,6.3811,6.3811,6.3813,6.3813,6.3812,6.3812,6.3809,6.3816,6.3817,6.3823,6.3811,6.3833,6.3834,6.3834,6.3845,6.3847,6.3849,0,0,0,0,0,6.3798,6.3806,6.3805,6.3806,6.3813,6.382,6.382,6.3818,6.3814,6.3818,6.3817,6.3812,6.3822,6.3817,6.3818,6.3823,6.3832,6.3833,6.3834,6.3844,6.3847,6.3849,0,0,0,0,0,0,6.3803,6.3806,6.3805,6.3814,6.3817,6.3818,6.3823,6.382,6.3823,6.3822,6.3818,6.3818,6.3826,6.3825,6.382,6.3833,6.3826,6.3827,6.3833,6.3836,6.3837,6.3837,6.3811,0,0,0,0,0,6.3805,6.3811,6.3814,6.3821,6.3823,6.3823,6.3826,6.3824,6.3826,6.3827,6.3826,6.3828,6.3831,6.3833,6.3836,6.3845,6.3845,6.385,6.3852,6.3853,6.3854,6.386,6.3862,6.3838,6.3838,6.3838,0,0,6.3809,6.3812,6.3816,6.3823,6.3825,6.383,6.3824,6.383,6.3834,6.3827,6.3834,6.3834,6.3835,6.3844,6.3847,6.3843,6.3861,6.3854,6.3856,6.3856,6.3861,6.3863,6.3865,6.3839,6.3839,6.3839,0,0,6.382,6.3823,6.3831,6.3834,6.3838,6.3838,6.384,6.3843,6.3843,6.3851,6.3846,6.3851,6.3856,6.3858,6.386,6.3874,6.387,6.3875,6.3884,6.389,6.3892,6.3893,6.3899,6.3901,6.3876,6.3876,6.3876,0,6.3825,6.3835,6.3835,6.3842,6.3845,6.3842,6.385,6.3852,6.3856,6.3858,6.3854,6.3863,6.3864,6.3873,6.3877,6.3878,6.388,6.3875,6.3892,6.3893,6.3895,6.39,6.3903,6.3877,6.3877,6.3877,6.3877,0,6.384,6.3847,6.3853,6.386,6.3864,6.3871,6.3872,6.3875,6.3874,6.3875,6.3883,6.3884,6.3888,6.389,6.3888,6.3899,6.3897,6.3893,6.3885,6.3898,6.3903,6.3905,6.3878,6.3878,6.3878,6.3877,0,0,6.3852,6.3862,6.3863,6.3867,6.3873,6.3878,6.3885,6.3891,6.3895,6.3898,6.3904,6.3911,6.3908,6.3909,6.3907,6.3913,6.3925,6.3908,6.3908,6.3911,6.3939,6.3943,6.3945,6.3923,6.3923,6.3924,6.3939,0,6.3864,6.3879,6.388,6.3893,6.39,6.3898,6.3905,6.3909,6.391,6.3915,6.3916,6.3921,6.3916,6.3917,6.3923,6.3923,6.3931,6.3922,6.3928,6.3928,6.3928,6.3948,6.3951,6.3965,6.3941,6.3942,6.3942,0,6.3879,6.3886,6.39,6.3907,6.391,6.3916,6.3922,6.3928,6.3932,6.3933,6.3936,6.3935,6.3942,6.3935,6.3945,6.3939,6.3942,6.3943,6.3943,6.3943,6.3936,6.3948,6.397,6.3972,6.3945,6.3945,6.3944,0,6.3887,6.39,6.3911,6.3914,6.3921,6.3926,6.3929,6.3934,6.3938,6.3943,6.3946,6.3951,6.3954,6.3958,6.3958,6.3953,6.3968,6.3961,6.3969,6.3969,6.3971,6.3971,6.3993,6.3973,6.3973,6.3973,6.3973,0,6.39,6.3909,6.3915,6.3921,6.3931,6.3933,6.3943,6.3945,6.395,6.3956,6.3955,6.396,6.396,6.3966,6.3965,6.3974,6.3975,6.3976,6.3976,6.3976,6.3976,6.3977,6.3976,6.3974,6.3974,6.3974,6.3974,0,6.391,6.3915,6.3926,6.3934,6.3936,6.3943,6.3949,6.3955,6.3958,6.3966,6.3968,6.3971,6.3978,6.3979,6.3986,6.3986,6.3997,6.3995,6.3996,6.3996,6.4003,6.4003,6.4027,6.403,6.4008,6.4009,6.4009,0,6.3918,6.3926,6.3935,6.394,6.3945,6.3953,6.3958,6.396,6.3965,6.3973,6.3978,6.3985,6.3991,6.4003,6.4005,6.4011,6.4009,6.4018,6.401,6.4011,6.401,6.4009,6.401,6.4019,6.4019,6.4019,6.4019,0,6.3932,6.3934,6.3943,6.3952,6.3959,6.3966,6.3973,6.3977,6.398,6.3986,6.3995,6.3999,6.4009,6.4016,6.4023,6.4025,6.4023,6.4022,6.4024,6.4024,6.4025,6.4025,6.4,6.4021,6.4021,6.4021,6.4021,6.4021,6.3941,6.3948,6.3957,6.3967,6.3973,6.398,6.3986,6.3991,6.3998,6.4007,6.4008,6.4018,6.4023,6.4032,6.4035,6.4042,6.4039,6.4042,6.4043,6.4043,6.4044,6.4024,6.4043,6.4043,6.4043,6.4043,6.4043,0,6.3955,6.3961,6.397,6.3981,6.3989,6.3989,6.3997,6.4003,6.4012,6.4018,6.4026,6.4036,6.4044,6.4047,6.4055,6.406,6.4059,6.4062,6.4061,6.4062,6.4046,6.4044,6.4062,6.4062,6.4062,6.4062,6.4062,6.4062,6.3963,6.3976,6.398,6.3995,6.4001,6.4012,6.4017,6.4023,6.4028,6.4041,6.4048,6.4052,6.4057,6.4065,6.4073,6.4073,6.4076,6.4079,6.408,6.4065,6.4063,6.4061,6.4059,6.408,6.408,6.4095,6.4095,6.4095]}]]